Time,TemperatureF,DewpointF,PressureIn,WindDirection,WindDirectionDegrees,WindSpeedMPH,WindSpeedGustMPH,Humidity,HourlyPrecipIn,Conditions,Clouds,dailyrainin,SoftwareType,DateUTC
2013-09-10 00:01:00,81.6,61.7,29.87,South,172,2.0,3.0,51,0.00,,---,0.00,VWS V14.01,2013-09-10 05:01:00,
2013-09-10 00:06:00,81.6,61.7,29.87,SE,131,9.0,9.0,51,0.00,,---,0.00,VWS V14.01,2013-09-10 05:06:00,
2013-09-10 00:11:00,81.7,61.8,29.88,SE,137,5.0,9.0,51,0.00,,---,0.00,VWS V14.01,2013-09-10 05:11:00,
2013-09-10 00:15:00,81.7,61.8,29.87,SSW,197,5.0,5.0,51,0.00,,---,0.00,VWS V14.01,2013-09-10 05:15:00,
2013-09-10 00:20:00,81.6,61.7,29.87,East,91,3.0,10.0,51,0.00,,---,0.00,VWS V14.01,2013-09-10 05:20:00,
2013-09-10 00:25:00,81.6,61.7,29.87,South,189,3.0,12.0,51,0.00,,---,0.00,VWS V14.01,2013-09-10 05:25:00,
2013-09-10 00:30:00,81.6,61.7,29.88,SE,139,4.0,4.0,51,0.00,,---,0.00,VWS V14.01,2013-09-10 05:30:00,
2013-09-10 00:35:00,81.6,61.7,29.88,South,191,7.0,11.0,51,0.00,,---,0.00,VWS V14.01,2013-09-10 05:35:00,
2013-09-10 00:40:00,81.5,61.7,29.88,SW,229,4.0,11.0,51,0.00,,---,0.00,VWS V14.01,2013-09-10 05:40:00,
2013-09-10 00:45:00,81.5,61.7,29.88,SW,229,2.0,2.0,51,0.00,,---,0.00,VWS V14.01,2013-09-10 05:45:00,
2013-09-10 00:50:00,81.3,61.5,29.88,SSW,203,3.0,11.0,51,0.00,,---,0.00,VWS V14.01,2013-09-10 05:50:00,
2013-09-10 00:55:00,81.2,61.9,29.88,SSE,156,4.0,12.0,52,0.00,,---,0.00,VWS V14.01,2013-09-10 05:55:00,
2013-09-10 01:00:00,81.2,61.9,29.88,SSE,149,2.0,12.0,52,0.00,,---,0.00,VWS V14.01,2013-09-10 06:00:00,
2013-09-10 01:05:00,81.0,61.7,29.88,SSW,205,6.0,8.0,52,0.00,,---,0.00,VWS V14.01,2013-09-10 06:05:00,
2013-09-10 01:10:00,81.0,61.7,29.88,SE,128,5.0,9.0,52,0.00,,---,0.00,VWS V14.01,2013-09-10 06:10:00,
2013-09-10 01:15:00,80.9,61.6,29.88,SSE,153,3.0,11.0,52,0.00,,---,0.00,VWS V14.01,2013-09-10 06:15:00,
2013-09-10 01:20:00,80.8,61.5,29.88,SW,228,5.0,11.0,52,0.00,,---,0.00,VWS V14.01,2013-09-10 06:20:00,
2013-09-10 01:25:00,80.7,61.5,29.88,SSW,197,3.0,11.0,52,0.00,,---,0.00,VWS V14.01,2013-09-10 06:25:00,
2013-09-10 01:30:00,80.5,61.8,29.88,SSE,163,8.0,11.0,53,0.00,,---,0.00,VWS V14.01,2013-09-10 06:30:00,
2013-09-10 01:35:00,80.5,61.8,29.88,SSW,194,0.0,8.0,53,0.00,,---,0.00,VWS V14.01,2013-09-10 06:35:00,
2013-09-10 01:40:00,80.4,61.7,29.88,SE,142,3.0,11.0,53,0.00,,---,0.00,VWS V14.01,2013-09-10 06:40:00,
2013-09-10 01:45:00,80.3,61.6,29.88,SW,224,6.0,11.0,53,0.00,,---,0.00,VWS V14.01,2013-09-10 06:45:00,
2013-09-10 01:50:00,80.2,61.5,29.88,SSW,197,1.0,9.0,53,0.00,,---,0.00,VWS V14.01,2013-09-10 06:50:00,
2013-09-10 01:55:00,80.1,61.4,29.88,SSE,162,3.0,9.0,53,0.00,,---,0.00,VWS V14.01,2013-09-10 06:55:00,
2013-09-10 02:00:00,79.9,61.3,29.89,SW,215,2.0,9.0,53,0.00,,---,0.00,VWS V14.01,2013-09-10 07:00:00,
2013-09-10 02:05:00,79.8,61.2,29.89,South,169,2.0,10.0,53,0.00,,---,0.00,VWS V14.01,2013-09-10 07:05:00,
2013-09-10 02:10:00,79.7,61.6,29.89,SSE,158,5.0,10.0,54,0.00,,---,0.00,VWS V14.01,2013-09-10 07:10:00,
2013-09-10 02:15:00,79.5,61.4,29.89,SSW,207,4.0,10.0,54,0.00,,---,0.00,VWS V14.01,2013-09-10 07:15:00,
2013-09-10 02:20:00,79.3,61.2,29.89,SW,221,3.0,6.0,54,0.00,,---,0.00,VWS V14.01,2013-09-10 07:20:00,
2013-09-10 02:25:00,79.1,61.6,29.89,West,281,1.0,6.0,55,0.00,,---,0.00,VWS V14.01,2013-09-10 07:25:00,
2013-09-10 02:30:00,79.0,61.5,29.89,SE,128,3.0,7.0,55,0.00,,---,0.00,VWS V14.01,2013-09-10 07:30:00,
2013-09-10 02:35:00,78.9,61.4,29.89,SSW,197,4.0,8.0,55,0.00,,---,0.00,VWS V14.01,2013-09-10 07:35:00,
2013-09-10 02:40:00,78.8,61.3,29.89,SSW,212,5.0,8.0,55,0.00,,---,0.00,VWS V14.01,2013-09-10 07:40:00,
2013-09-10 02:45:00,78.6,61.1,29.89,South,186,3.0,8.0,55,0.00,,---,0.00,VWS V14.01,2013-09-10 07:45:00,
2013-09-10 02:50:00,78.6,61.1,29.89,SSE,160,1.0,6.0,55,0.00,,---,0.00,VWS V14.01,2013-09-10 07:50:00,
2013-09-10 02:55:00,78.6,61.1,29.89,WSW,240,3.0,11.0,55,0.00,,---,0.00,VWS V14.01,2013-09-10 07:55:00,
2013-09-10 03:00:00,78.5,61.0,29.89,SSE,150,4.0,11.0,55,0.00,,---,0.00,VWS V14.01,2013-09-10 08:00:00,
2013-09-10 03:05:00,78.5,61.0,29.89,SSE,152,3.0,9.0,55,0.00,,---,0.00,VWS V14.01,2013-09-10 08:05:00,
2013-09-10 03:10:00,78.4,60.9,29.89,SSW,203,3.0,9.0,55,0.00,,---,0.00,VWS V14.01,2013-09-10 08:10:00,
2013-09-10 03:15:00,78.3,60.8,29.89,SSW,193,4.0,9.0,55,0.00,,---,0.00,VWS V14.01,2013-09-10 08:15:00,
2013-09-10 03:20:00,78.2,61.2,29.89,SSW,195,4.0,7.0,56,0.00,,---,0.00,VWS V14.01,2013-09-10 08:20:00,
2013-09-10 03:25:00,78.1,61.1,29.89,West,266,3.0,9.0,56,0.00,,---,0.00,VWS V14.01,2013-09-10 08:25:00,
2013-09-10 03:30:00,78.0,61.0,29.90,SW,214,3.0,9.0,56,0.00,,---,0.00,VWS V14.01,2013-09-10 08:30:00,
2013-09-10 03:35:00,77.9,61.0,29.90,SSE,158,2.0,6.0,56,0.00,,---,0.00,VWS V14.01,2013-09-10 08:35:00,
2013-09-10 03:40:00,77.9,61.0,29.90,SE,131,4.0,8.0,56,0.00,,---,0.00,VWS V14.01,2013-09-10 08:40:00,
2013-09-10 03:45:00,77.8,60.9,29.89,SSW,200,4.0,8.0,56,0.00,,---,0.00,VWS V14.01,2013-09-10 08:45:00,
2013-09-10 03:50:00,77.8,60.9,29.89,SE,140,3.0,8.0,56,0.00,,---,0.00,VWS V14.01,2013-09-10 08:50:00,
2013-09-10 03:55:00,77.7,60.8,29.89,SSW,210,5.0,8.0,56,0.00,,---,0.00,VWS V14.01,2013-09-10 08:55:00,
2013-09-10 04:00:00,77.7,61.3,29.90,SSE,160,1.0,8.0,57,0.00,,---,0.00,VWS V14.01,2013-09-10 09:00:00,
2013-09-10 04:05:00,77.6,61.2,29.89,SSE,167,3.0,7.0,57,0.00,,---,0.00,VWS V14.01,2013-09-10 09:05:00,
2013-09-10 04:10:00,77.6,61.2,29.89,SSE,148,3.0,7.0,57,0.00,,---,0.00,VWS V14.01,2013-09-10 09:10:00,
2013-09-10 04:15:00,77.5,61.1,29.89,SW,226,1.0,7.0,57,0.00,,---,0.00,VWS V14.01,2013-09-10 09:15:00,
2013-09-10 04:20:00,77.4,61.0,29.89,SW,230,6.0,8.0,57,0.00,,---,0.00,VWS V14.01,2013-09-10 09:20:00,
2013-09-10 04:25:00,77.5,61.1,29.89,SSW,212,0.0,8.0,57,0.00,,---,0.00,VWS V14.01,2013-09-10 09:25:00,
2013-09-10 04:30:00,77.4,61.0,29.89,SSW,193,3.0,12.0,57,0.00,,---,0.00,VWS V14.01,2013-09-10 09:30:00,
2013-09-10 04:35:00,77.4,61.0,29.89,SSW,201,6.0,7.0,57,0.00,,---,0.00,VWS V14.01,2013-09-10 09:35:00,
2013-09-10 04:40:00,77.2,61.3,29.89,SSE,168,3.0,7.0,58,0.00,,---,0.00,VWS V14.01,2013-09-10 09:40:00,
2013-09-10 04:45:00,77.1,61.2,29.90,SSW,203,3.0,8.0,58,0.00,,---,0.00,VWS V14.01,2013-09-10 09:45:00,
2013-09-10 04:50:00,77.0,61.1,29.90,WSW,242,3.0,8.0,58,0.00,,---,0.00,VWS V14.01,2013-09-10 09:50:00,
2013-09-10 04:55:00,76.9,61.0,29.90,SW,229,2.0,8.0,58,0.00,,---,0.00,VWS V14.01,2013-09-10 09:55:00,
2013-09-10 05:00:00,76.8,60.9,29.90,South,181,1.0,10.0,58,0.00,,---,0.00,VWS V14.01,2013-09-10 10:00:00,
2013-09-10 05:05:00,76.8,61.4,29.90,SW,229,4.0,7.0,59,0.00,,---,0.00,VWS V14.01,2013-09-10 10:05:00,
2013-09-10 05:10:00,76.2,58.9,29.90,SSW,203,3.0,9.0,55,0.00,,---,0.00,VWS V14.01,2013-09-10 10:10:00,
2013-09-10 05:15:00,76.2,58.9,29.90,SSW,203,3.0,9.0,55,0.00,,---,0.00,VWS V14.01,2013-09-10 10:15:00,
2013-09-10 05:20:00,76.2,58.9,29.90,SSW,203,3.0,3.0,55,0.00,,---,0.00,VWS V14.01,2013-09-10 10:20:00,
2013-09-10 05:25:00,76.2,58.9,29.90,SSW,203,3.0,3.0,55,0.00,,---,0.00,VWS V14.01,2013-09-10 10:25:00,
2013-09-10 05:30:00,76.2,58.9,29.91,SSW,203,3.0,3.0,55,0.00,,---,0.00,VWS V14.01,2013-09-10 10:30:00,
2013-09-10 05:35:00,76.2,58.9,29.91,SSW,203,3.0,3.0,55,0.00,,---,0.00,VWS V14.01,2013-09-10 10:35:00,
2013-09-10 05:40:00,76.2,58.9,29.91,SSW,203,3.0,3.0,55,0.00,,---,0.00,VWS V14.01,2013-09-10 10:40:00,
2013-09-10 05:45:00,76.2,58.9,29.91,SSW,203,3.0,3.0,55,0.00,,---,0.00,VWS V14.01,2013-09-10 10:45:00,
2013-09-10 05:50:00,76.2,58.9,29.91,SSW,203,3.0,3.0,55,0.00,,---,0.00,VWS V14.01,2013-09-10 10:50:00,
2013-09-10 05:55:00,76.2,58.9,29.91,SSW,203,3.0,3.0,55,0.00,,---,0.00,VWS V14.01,2013-09-10 10:55:00,
2013-09-10 06:00:00,76.2,58.9,29.91,SSW,203,3.0,3.0,55,0.00,,---,0.00,VWS V14.01,2013-09-10 11:00:00,
2013-09-10 06:05:00,76.2,58.9,29.91,SSW,203,3.0,3.0,55,0.00,,---,0.00,VWS V14.01,2013-09-10 11:05:00,
2013-09-10 06:10:00,76.2,58.9,29.92,SSW,203,3.0,3.0,55,0.00,,---,0.00,VWS V14.01,2013-09-10 11:10:00,
2013-09-10 06:15:00,76.2,58.9,29.91,SSW,203,3.0,3.0,55,0.00,,---,0.00,VWS V14.01,2013-09-10 11:15:00,
2013-09-10 06:20:00,76.2,58.9,29.91,SSW,203,3.0,3.0,55,0.00,,---,0.00,VWS V14.01,2013-09-10 11:20:00,
2013-09-10 06:25:00,76.2,58.9,29.92,SSW,203,3.0,3.0,55,0.00,,---,0.00,VWS V14.01,2013-09-10 11:25:00,
2013-09-10 06:30:00,76.2,58.9,29.92,SSW,203,3.0,3.0,55,0.00,,---,0.00,VWS V14.01,2013-09-10 11:30:00,
2013-09-10 06:35:00,76.2,58.9,29.92,SSW,203,3.0,3.0,55,0.00,,---,0.00,VWS V14.01,2013-09-10 11:35:00,
2013-09-10 06:40:00,76.2,58.9,29.92,SSW,203,3.0,3.0,55,0.00,,---,0.00,VWS V14.01,2013-09-10 11:40:00,
2013-09-10 06:45:00,76.2,58.9,29.92,SSW,203,3.0,3.0,55,0.00,,---,0.00,VWS V14.01,2013-09-10 11:45:00,
2013-09-10 06:50:00,76.2,58.9,29.92,SSW,203,3.0,3.0,55,0.00,,---,0.00,VWS V14.01,2013-09-10 11:50:00,
2013-09-10 06:55:00,76.2,58.9,29.93,SSW,203,3.0,3.0,55,0.00,,---,0.00,VWS V14.01,2013-09-10 11:55:00,
2013-09-10 07:00:00,76.2,58.9,29.93,SSW,203,3.0,3.0,55,0.00,,---,0.00,VWS V14.01,2013-09-10 12:00:00,
2013-09-10 07:05:00,76.2,58.9,29.93,SSW,203,3.0,3.0,55,0.00,,---,0.00,VWS V14.01,2013-09-10 12:05:00,
2013-09-10 07:10:00,76.2,58.9,29.93,SSW,203,3.0,3.0,55,0.00,,---,0.00,VWS V14.01,2013-09-10 12:10:00,
2013-09-10 07:15:00,76.2,58.9,29.93,SSW,203,3.0,3.0,55,0.00,,---,0.00,VWS V14.01,2013-09-10 12:15:00,
2013-09-10 07:20:00,76.2,58.9,29.94,SSW,203,3.0,3.0,55,0.00,,---,0.00,VWS V14.01,2013-09-10 12:20:00,
2013-09-10 07:25:00,76.2,58.9,29.94,SSW,203,3.0,3.0,55,0.00,,---,0.00,VWS V14.01,2013-09-10 12:25:00,
2013-09-10 07:30:00,76.2,58.9,29.94,SSW,203,3.0,3.0,55,0.00,,---,0.00,VWS V14.01,2013-09-10 12:30:00,
2013-09-10 07:35:00,76.2,58.9,29.94,SSW,203,3.0,3.0,55,0.00,,---,0.00,VWS V14.01,2013-09-10 12:35:00,
2013-09-10 07:40:00,76.2,58.9,29.94,SSW,203,3.0,3.0,55,0.00,,---,0.00,VWS V14.01,2013-09-10 12:40:00,
2013-09-10 07:45:00,76.2,58.9,29.94,SSW,203,3.0,3.0,55,0.00,,---,0.00,VWS V14.01,2013-09-10 12:45:00,
2013-09-10 07:50:00,75.6,62.6,29.94,South,191,2.0,6.0,64,0.00,,---,0.00,VWS V14.01,2013-09-10 12:50:00,
2013-09-10 07:55:00,75.7,62.7,29.95,SW,231,4.0,9.0,64,0.00,,---,0.00,VWS V14.01,2013-09-10 12:55:00,
2013-09-10 08:00:00,75.9,62.9,29.95,SE,143,3.0,9.0,64,0.00,,---,0.00,VWS V14.01,2013-09-10 13:00:00,
2013-09-10 08:05:00,76.0,63.0,29.95,SSE,165,3.0,8.0,64,0.00,,---,0.00,VWS V14.01,2013-09-10 13:05:00,
2013-09-10 08:10:00,76.3,63.2,29.95,SSW,212,3.0,10.0,64,0.00,,---,0.00,VWS V14.01,2013-09-10 13:10:00,
2013-09-10 08:15:00,76.5,63.0,29.95,SW,219,3.0,10.0,63,0.00,,---,0.00,VWS V14.01,2013-09-10 13:15:00,
2013-09-10 08:20:00,76.8,63.3,29.95,SW,226,3.0,8.0,63,0.00,,---,0.00,VWS V14.01,2013-09-10 13:20:00,
2013-09-10 08:24:00,77.1,63.5,29.95,SE,131,3.0,8.0,63,0.00,,---,0.00,VWS V14.01,2013-09-10 13:24:00,
2013-09-10 08:29:00,77.4,63.4,29.95,SW,226,6.0,8.0,62,0.00,,---,0.00,VWS V14.01,2013-09-10 13:29:00,
2013-09-10 08:34:00,77.7,63.7,29.95,SW,226,9.0,11.0,62,0.00,,---,0.00,VWS V14.01,2013-09-10 13:34:00,
2013-09-10 08:39:00,78.3,63.8,29.95,South,180,4.0,11.0,61,0.00,,---,0.00,VWS V14.01,2013-09-10 13:39:00,
2013-09-10 08:44:00,78.7,63.7,29.95,SW,226,9.0,12.0,60,0.00,,---,0.00,VWS V14.01,2013-09-10 13:44:00,
2013-09-10 08:49:00,79.1,64.0,29.95,South,181,3.0,11.0,60,0.00,,---,0.00,VWS V14.01,2013-09-10 13:49:00,
2013-09-10 08:54:00,79.6,64.0,29.96,SW,217,2.0,11.0,59,0.00,,---,0.00,VWS V14.01,2013-09-10 13:54:00,
2013-09-10 08:59:00,80.1,64.0,29.96,WNW,294,3.0,11.0,58,0.00,,---,0.00,VWS V14.01,2013-09-10 13:59:00,
2013-09-10 09:04:00,80.5,64.4,29.96,SSW,205,5.0,8.0,58,0.00,,---,0.00,VWS V14.01,2013-09-10 14:04:00,
2013-09-10 09:09:00,80.9,64.2,29.96,SE,140,4.0,8.0,57,0.00,,---,0.00,VWS V14.01,2013-09-10 14:09:00,
2013-09-10 09:14:00,81.1,64.4,29.96,South,191,9.0,14.0,57,0.00,,---,0.00,VWS V14.01,2013-09-10 14:14:00,
2013-09-10 09:19:00,81.4,64.2,29.96,West,266,5.0,13.0,56,0.00,,---,0.00,VWS V14.01,2013-09-10 14:19:00,
2013-09-10 09:24:00,81.9,64.7,29.96,South,174,3.0,13.0,56,0.00,,---,0.00,VWS V14.01,2013-09-10 14:24:00,
2013-09-10 09:29:00,82.5,64.7,29.96,SSE,162,6.0,13.0,55,0.00,,---,0.00,VWS V14.01,2013-09-10 14:29:00,
2013-09-10 09:34:00,82.6,64.3,29.97,West,272,4.0,13.0,54,0.00,,---,0.00,VWS V14.01,2013-09-10 14:34:00,
2013-09-10 09:39:00,82.9,64.6,29.97,WSW,256,7.0,13.0,54,0.00,,---,0.00,VWS V14.01,2013-09-10 14:39:00,
2013-09-10 09:44:00,83.3,64.9,29.97,SW,221,8.0,13.0,54,0.00,,---,0.00,VWS V14.01,2013-09-10 14:44:00,
2013-09-10 09:49:00,83.6,65.2,29.97,South,186,4.0,12.0,54,0.00,,---,0.00,VWS V14.01,2013-09-10 14:49:00,
2013-09-10 09:54:00,84.0,65.1,29.97,SSE,159,7.0,12.0,53,0.00,,---,0.00,VWS V14.01,2013-09-10 14:54:00,
2013-09-10 09:59:00,84.5,65.5,29.97,South,181,5.0,13.0,53,0.00,,---,0.00,VWS V14.01,2013-09-10 14:59:00,
2013-09-10 10:04:00,84.8,65.2,29.97,WSW,242,5.0,10.0,52,0.00,,---,0.00,VWS V14.01,2013-09-10 15:04:00,
2013-09-10 10:09:00,85.2,65.6,29.97,SW,214,6.0,10.0,52,0.00,,---,0.00,VWS V14.01,2013-09-10 15:09:00,
2013-09-10 10:14:00,85.7,65.5,29.97,SW,226,12.0,12.0,51,0.00,,---,0.00,VWS V14.01,2013-09-10 15:14:00,
2013-09-10 10:19:00,86.2,66.0,29.97,SSW,205,4.0,10.0,51,0.00,,---,0.00,VWS V14.01,2013-09-10 15:19:00,
2013-09-10 10:24:00,86.9,66.0,29.97,SSW,197,7.0,11.0,50,0.00,,---,0.00,VWS V14.01,2013-09-10 15:24:00,
2013-09-10 10:29:00,87.4,65.9,29.97,South,191,8.0,13.0,49,0.00,,---,0.00,VWS V14.01,2013-09-10 15:29:00,
2013-09-10 10:34:00,87.8,66.3,29.97,SSW,194,7.0,14.0,49,0.00,,---,0.00,VWS V14.01,2013-09-10 15:34:00,
2013-09-10 10:39:00,88.3,66.1,29.97,South,177,3.0,14.0,48,0.00,,---,0.00,VWS V14.01,2013-09-10 15:39:00,
2013-09-10 10:44:00,88.3,65.5,29.97,SW,232,10.0,14.0,47,0.00,,---,0.00,VWS V14.01,2013-09-10 15:44:00,
2013-09-10 10:49:00,88.6,65.8,29.97,South,188,11.0,13.0,47,0.00,,---,0.00,VWS V14.01,2013-09-10 15:49:00,
2013-09-10 10:54:00,88.8,66.0,29.97,WSW,239,5.0,13.0,47,0.00,,---,0.00,VWS V14.01,2013-09-10 15:54:00,
2013-09-10 10:59:00,89.0,65.6,29.97,SSW,206,10.0,13.0,46,0.00,,---,0.00,VWS V14.01,2013-09-10 15:59:00,
2013-09-10 11:04:00,89.2,65.7,29.97,South,183,8.0,12.0,46,0.00,,---,0.00,VWS V14.01,2013-09-10 16:04:00,
2013-09-10 11:09:00,89.2,65.7,29.97,ESE,104,2.0,14.0,46,0.00,,---,0.00,VWS V14.01,2013-09-10 16:09:00,
2013-09-10 11:14:00,89.4,65.9,29.97,SSW,212,4.0,14.0,46,0.00,,---,0.00,VWS V14.01,2013-09-10 16:14:00,
2013-09-10 11:19:00,89.8,65.6,29.98,SSW,212,5.0,13.0,45,0.00,,---,0.00,VWS V14.01,2013-09-10 16:19:00,
2013-09-10 11:24:00,90.2,66.0,29.98,South,171,6.0,13.0,45,0.00,,---,0.00,VWS V14.01,2013-09-10 16:24:00,
2013-09-10 11:29:00,90.6,65.7,29.97,SW,219,12.0,14.0,44,0.00,,---,0.00,VWS V14.01,2013-09-10 16:29:00,
2013-09-10 11:34:00,90.8,65.9,29.98,SSE,155,11.0,13.0,44,0.00,,---,0.00,VWS V14.01,2013-09-10 16:34:00,
2013-09-10 11:39:00,90.9,66.0,29.98,SSW,203,3.0,13.0,44,0.00,,---,0.00,VWS V14.01,2013-09-10 16:39:00,
2013-09-10 11:44:00,91.3,65.7,29.97,SW,226,10.0,14.0,43,0.00,,---,0.00,VWS V14.01,2013-09-10 16:44:00,
2013-09-10 11:49:00,91.5,65.9,29.97,South,186,6.0,15.0,43,0.00,,---,0.00,VWS V14.01,2013-09-10 16:49:00,
2013-09-10 11:54:00,91.7,66.1,29.97,WSW,242,12.0,15.0,43,0.00,,---,0.00,VWS V14.01,2013-09-10 16:54:00,
2013-09-10 11:59:00,92.0,65.6,29.97,West,263,10.0,15.0,42,0.00,,---,0.00,VWS V14.01,2013-09-10 16:59:00,
2013-09-10 12:04:00,92.0,65.6,29.97,SW,225,8.0,13.0,42,0.00,,---,0.00,VWS V14.01,2013-09-10 17:04:00,
2013-09-10 12:09:00,92.3,65.9,29.97,South,177,12.0,13.0,42,0.00,,---,0.00,VWS V14.01,2013-09-10 17:09:00,
2013-09-10 12:14:00,92.5,66.1,29.97,SW,236,7.0,13.0,42,0.00,,---,0.00,VWS V14.01,2013-09-10 17:14:00,
2013-09-10 12:19:00,93.1,65.9,29.97,SW,226,8.0,10.0,41,0.00,,---,0.00,VWS V14.01,2013-09-10 17:19:00,
2013-09-10 12:24:00,93.0,65.8,29.98,WSW,244,8.0,13.0,41,0.00,,---,0.00,VWS V14.01,2013-09-10 17:24:00,
2013-09-10 12:29:00,93.1,65.9,29.97,SW,233,7.0,13.0,41,0.00,,---,0.00,VWS V14.01,2013-09-10 17:29:00,
2013-09-10 12:34:00,93.2,66.0,29.97,SE,143,4.0,12.0,41,0.00,,---,0.00,VWS V14.01,2013-09-10 17:34:00,
2013-09-10 12:39:00,93.3,65.4,29.97,SSW,212,5.0,12.0,40,0.00,,---,0.00,VWS V14.01,2013-09-10 17:39:00,
2013-09-10 12:44:00,93.3,66.1,29.97,South,169,6.0,14.0,41,0.00,,---,0.00,VWS V14.01,2013-09-10 17:44:00,
2013-09-10 12:49:00,93.4,65.5,29.97,SW,231,10.0,15.0,40,0.00,,---,0.00,VWS V14.01,2013-09-10 17:49:00,
2013-09-10 12:54:00,93.5,65.6,29.97,WSW,238,9.0,21.0,40,0.00,,---,0.00,VWS V14.01,2013-09-10 17:54:00,
2013-09-10 12:59:00,93.6,65.7,29.97,SW,219,2.0,21.0,40,0.00,,---,0.00,VWS V14.01,2013-09-10 17:59:00,
2013-09-10 13:04:00,94.1,65.4,29.97,WSW,240,5.0,14.0,39,0.00,,---,0.00,VWS V14.01,2013-09-10 18:04:00,
2013-09-10 13:09:00,94.3,65.6,29.97,SW,228,10.0,14.0,39,0.00,,---,0.00,VWS V14.01,2013-09-10 18:09:00,
2013-09-10 13:14:00,94.5,65.7,29.97,South,191,9.0,14.0,39,0.00,,---,0.00,VWS V14.01,2013-09-10 18:14:00,
2013-09-10 13:19:00,94.3,65.6,29.96,SSE,155,6.0,10.0,39,0.00,,---,0.00,VWS V14.01,2013-09-10 18:19:00,
2013-09-10 13:24:00,94.7,65.2,29.96,SSW,212,7.0,11.0,38,0.00,,---,0.00,VWS V14.01,2013-09-10 18:24:00,
2013-09-10 13:29:00,94.9,65.3,29.96,SSW,204,9.0,13.0,38,0.00,,---,0.00,VWS V14.01,2013-09-10 18:29:00,
2013-09-10 13:34:00,95.1,66.3,29.96,SSE,158,5.0,9.0,39,0.00,,---,0.00,VWS V14.01,2013-09-10 18:34:00,
2013-09-10 13:39:00,95.7,66.1,29.96,SSW,194,4.0,17.0,38,0.00,,---,0.00,VWS V14.01,2013-09-10 18:39:00,
2013-09-10 13:44:00,95.8,65.4,29.96,SSE,159,8.0,17.0,37,0.00,,---,0.00,VWS V14.01,2013-09-10 18:44:00,
2013-09-10 13:49:00,95.7,65.3,29.96,SE,128,5.0,14.0,37,0.00,,---,0.00,VWS V14.01,2013-09-10 18:49:00,
2013-09-10 13:54:00,95.9,65.5,29.96,SSW,203,5.0,14.0,37,0.00,,---,0.00,VWS V14.01,2013-09-10 18:54:00,
2013-09-10 13:59:00,95.8,65.4,29.96,SW,229,9.0,14.0,37,0.00,,---,0.00,VWS V14.01,2013-09-10 18:59:00,
2013-09-10 14:04:00,96.1,64.8,29.96,South,173,5.0,14.0,36,0.00,,---,0.00,VWS V14.01,2013-09-10 19:04:00,
2013-09-10 14:09:00,96.2,64.9,29.96,SW,232,8.0,14.0,36,0.00,,---,0.00,VWS V14.01,2013-09-10 19:09:00,
2013-09-10 14:14:00,96.0,64.8,29.95,SW,229,8.0,14.0,36,0.00,,---,0.00,VWS V14.01,2013-09-10 19:14:00,
2013-09-10 14:19:00,96.2,64.9,29.95,SE,138,4.0,15.0,36,0.00,,---,0.00,VWS V14.01,2013-09-10 19:19:00,
2013-09-10 14:24:00,96.2,64.9,29.95,South,173,3.0,15.0,36,0.00,,---,0.00,VWS V14.01,2013-09-10 19:24:00,
2013-09-10 14:29:00,95.9,64.7,29.95,SW,224,6.0,15.0,36,0.00,,---,0.00,VWS V14.01,2013-09-10 19:29:00,
2013-09-10 14:34:00,95.8,64.6,29.95,South,174,3.0,12.0,36,0.00,,---,0.00,VWS V14.01,2013-09-10 19:34:00,
2013-09-10 14:39:00,96.1,64.8,29.95,SW,215,4.0,16.0,36,0.00,,---,0.00,VWS V14.01,2013-09-10 19:39:00,
2013-09-10 14:44:00,95.7,64.5,29.94,SSW,204,6.0,16.0,36,0.00,,---,0.00,VWS V14.01,2013-09-10 19:44:00,
2013-09-10 14:49:00,95.7,64.5,29.94,SW,235,10.0,12.0,36,0.00,,---,0.00,VWS V14.01,2013-09-10 19:49:00,
2013-09-10 14:54:00,95.9,64.7,29.94,WSW,239,8.0,14.0,36,0.00,,---,0.00,VWS V14.01,2013-09-10 19:54:00,
2013-09-10 14:59:00,95.5,63.5,29.94,SW,223,12.0,14.0,35,0.00,,---,0.00,VWS V14.01,2013-09-10 19:59:00,
2013-09-10 15:04:00,95.1,64.0,29.94,SSW,212,3.0,11.0,36,0.00,,---,0.00,VWS V14.01,2013-09-10 20:04:00,
2013-09-10 15:09:00,95.0,63.9,29.94,South,181,6.0,12.0,36,0.00,,---,0.00,VWS V14.01,2013-09-10 20:09:00,
2013-09-10 15:14:00,95.4,63.4,29.94,SSW,210,6.0,12.0,35,0.00,,---,0.00,VWS V14.01,2013-09-10 20:14:00,
2013-09-10 15:19:00,95.7,63.7,29.94,SW,229,7.0,12.0,35,0.00,,---,0.00,VWS V14.01,2013-09-10 20:19:00,
2013-09-10 15:24:00,95.8,63.8,29.94,WSW,239,11.0,12.0,35,0.00,,---,0.00,VWS V14.01,2013-09-10 20:24:00,
2013-09-10 15:29:00,96.1,64.0,29.93,WSW,248,7.0,14.0,35,0.00,,---,0.00,VWS V14.01,2013-09-10 20:29:00,
2013-09-10 15:34:00,96.4,64.3,29.93,SSW,193,7.0,13.0,35,0.00,,---,0.00,VWS V14.01,2013-09-10 20:34:00,
2013-09-10 15:39:00,96.1,64.8,29.93,South,188,5.0,13.0,36,0.00,,---,0.00,VWS V14.01,2013-09-10 20:39:00,
2013-09-10 15:44:00,96.0,64.8,29.93,WSW,239,5.0,15.0,36,0.00,,---,0.00,VWS V14.01,2013-09-10 20:44:00,
2013-09-10 15:49:00,96.5,64.4,29.93,South,190,5.0,10.0,35,0.00,,---,0.00,VWS V14.01,2013-09-10 20:49:00,
2013-09-10 15:54:00,96.7,63.7,29.92,SW,218,3.0,12.0,34,0.00,,---,0.00,VWS V14.01,2013-09-10 20:54:00,
2013-09-10 15:59:00,96.7,64.6,29.92,South,173,2.0,13.0,35,0.00,,---,0.00,VWS V14.01,2013-09-10 20:59:00,
2013-09-10 16:04:00,97.2,64.2,29.92,South,172,5.0,11.0,34,0.00,,---,0.00,VWS V14.01,2013-09-10 21:04:00,
2013-09-10 16:09:00,97.1,64.1,29.92,SSW,203,4.0,12.0,34,0.00,,---,0.00,VWS V14.01,2013-09-10 21:09:00,
2013-09-10 16:14:00,96.4,63.5,29.92,SE,129,6.0,12.0,34,0.00,,---,0.00,VWS V14.01,2013-09-10 21:14:00,
2013-09-10 16:19:00,96.4,64.3,29.92,South,190,3.0,11.0,35,0.00,,---,0.00,VWS V14.01,2013-09-10 21:19:00,
2013-09-10 16:24:00,96.3,63.4,29.92,SSE,152,5.0,13.0,34,0.00,,---,0.00,VWS V14.01,2013-09-10 21:24:00,
2013-09-10 16:29:00,96.0,64.8,29.91,SSE,152,4.0,13.0,36,0.00,,---,0.00,VWS V14.01,2013-09-10 21:29:00,
2013-09-10 16:34:00,96.1,64.0,29.92,SE,143,8.0,10.0,35,0.00,,---,0.00,VWS V14.01,2013-09-10 21:34:00,
2013-09-10 16:39:00,96.1,64.0,29.91,SSE,165,3.0,13.0,35,0.00,,---,0.00,VWS V14.01,2013-09-10 21:39:00,
2013-09-10 16:44:00,96.2,64.9,29.91,South,169,5.0,13.0,36,0.00,,---,0.00,VWS V14.01,2013-09-10 21:44:00,
2013-09-10 16:49:00,95.8,64.6,29.91,WSW,252,3.0,10.0,36,0.00,,---,0.00,VWS V14.01,2013-09-10 21:49:00,
2013-09-10 16:54:00,95.8,64.6,29.91,SE,142,12.0,14.0,36,0.00,,---,0.00,VWS V14.01,2013-09-10 21:54:00,
2013-09-10 16:59:00,95.8,64.6,29.91,WSW,238,7.0,14.0,36,0.00,,---,0.00,VWS V14.01,2013-09-10 21:59:00,
2013-09-10 17:04:00,96.1,64.8,29.91,SSE,150,8.0,12.0,36,0.00,,---,0.00,VWS V14.01,2013-09-10 22:04:00,
2013-09-10 17:09:00,95.9,64.7,29.91,SSW,203,10.0,13.0,36,0.00,,---,0.00,VWS V14.01,2013-09-10 22:09:00,
2013-09-10 17:14:00,95.9,64.7,29.91,SW,217,7.0,13.0,36,0.00,,---,0.00,VWS V14.01,2013-09-10 22:14:00,
2013-09-10 17:19:00,95.7,64.5,29.91,SSE,168,6.0,12.0,36,0.00,,---,0.00,VWS V14.01,2013-09-10 22:19:00,
2013-09-10 17:24:00,95.6,64.4,29.91,SW,226,5.0,13.0,36,0.00,,---,0.00,VWS V14.01,2013-09-10 22:24:00,
2013-09-10 17:29:00,95.7,64.5,29.91,WSW,239,6.0,13.0,36,0.00,,---,0.00,VWS V14.01,2013-09-10 22:29:00,
2013-09-10 17:34:00,95.4,64.2,29.91,SSE,152,8.0,11.0,36,0.00,,---,0.00,VWS V14.01,2013-09-10 22:34:00,
2013-09-10 17:39:00,95.3,64.2,29.91,SW,222,2.0,12.0,36,0.00,,---,0.00,VWS V14.01,2013-09-10 22:39:00,
2013-09-10 17:44:00,95.6,64.4,29.91,SSW,210,3.0,12.0,36,0.00,,---,0.00,VWS V14.01,2013-09-10 22:44:00,
2013-09-10 17:49:00,95.6,64.4,29.91,SW,221,6.0,12.0,36,0.00,,---,0.00,VWS V14.01,2013-09-10 22:49:00,
2013-09-10 17:54:00,95.5,63.5,29.91,SSE,162,3.0,17.0,35,0.00,,---,0.00,VWS V14.01,2013-09-10 22:54:00,
2013-09-10 17:59:00,95.4,64.2,29.91,West,264,8.0,17.0,36,0.00,,---,0.00,VWS V14.01,2013-09-10 22:59:00,
2013-09-10 18:04:00,95.4,64.2,29.91,SW,222,5.0,13.0,36,0.00,,---,0.00,VWS V14.01,2013-09-10 23:04:00,
2013-09-10 18:09:00,95.8,63.8,29.92,SW,215,4.0,13.0,35,0.00,,---,0.00,VWS V14.01,2013-09-10 23:09:00,
2013-09-10 18:14:00,95.5,63.5,29.91,SSW,195,3.0,13.0,35,0.00,,---,0.00,VWS V14.01,2013-09-10 23:14:00,
2013-09-10 18:19:00,95.3,63.3,29.92,SSW,213,6.0,10.0,35,0.00,,---,0.00,VWS V14.01,2013-09-10 23:19:00,
2013-09-10 18:24:00,95.0,63.9,29.92,SSE,152,6.0,12.0,36,0.00,,---,0.00,VWS V14.01,2013-09-10 23:24:00,
2013-09-10 18:29:00,95.0,63.9,29.92,SW,228,4.0,12.0,36,0.00,,---,0.00,VWS V14.01,2013-09-10 23:29:00,
2013-09-10 18:34:00,94.9,63.0,29.92,SW,229,4.0,9.0,35,0.00,,---,0.00,VWS V14.01,2013-09-10 23:34:00,
2013-09-10 18:39:00,94.5,63.4,29.92,SSW,203,2.0,9.0,36,0.00,,---,0.00,VWS V14.01,2013-09-10 23:39:00,
2013-09-10 18:44:00,94.3,62.5,29.92,SSE,148,9.0,9.0,35,0.00,,---,0.00,VWS V14.01,2013-09-10 23:44:00,
2013-09-10 18:49:00,93.9,62.9,29.92,SW,224,5.0,8.0,36,0.00,,---,0.00,VWS V14.01,2013-09-10 23:49:00,
2013-09-10 18:54:00,93.7,62.7,29.92,SW,233,2.0,13.0,36,0.00,,---,0.00,VWS V14.01,2013-09-10 23:54:00,
2013-09-10 18:59:00,93.7,61.9,29.92,SSE,166,7.0,13.0,35,0.00,,---,0.00,VWS V14.01,2013-09-10 23:59:00,
2013-09-10 19:04:00,93.6,61.8,29.92,SSW,212,11.0,11.0,35,0.00,,---,0.00,VWS V14.01,2013-09-11 00:04:00,
2013-09-10 19:09:00,93.6,61.8,29.92,SW,218,4.0,11.0,35,0.00,,---,0.00,VWS V14.01,2013-09-11 00:09:00,
2013-09-10 19:14:00,93.3,62.4,29.92,South,188,2.0,11.0,36,0.00,,---,0.00,VWS V14.01,2013-09-11 00:14:00,
2013-09-10 19:19:00,92.6,61.8,29.92,SE,125,6.0,9.0,36,0.00,,---,0.00,VWS V14.01,2013-09-11 00:19:00,
2013-09-10 19:24:00,92.1,62.1,29.92,SW,218,2.0,9.0,37,0.00,,---,0.00,VWS V14.01,2013-09-11 00:24:00,
2013-09-10 19:29:00,91.8,61.8,29.92,SE,139,3.0,9.0,37,0.00,,---,0.00,VWS V14.01,2013-09-11 00:29:00,
2013-09-10 19:34:00,91.5,61.6,29.92,SSW,194,4.0,8.0,37,0.00,,---,0.00,VWS V14.01,2013-09-11 00:34:00,
2013-09-10 19:39:00,91.1,61.2,29.92,SW,226,6.0,10.0,37,0.00,,---,0.00,VWS V14.01,2013-09-11 00:39:00,
2013-09-10 19:44:00,90.8,61.7,29.93,South,191,3.0,10.0,38,0.00,,---,0.00,VWS V14.01,2013-09-11 00:44:00,
2013-09-10 19:49:00,90.5,61.5,29.93,SSW,200,1.0,8.0,38,0.00,,---,0.00,VWS V14.01,2013-09-11 00:49:00,
2013-09-10 19:54:00,90.2,61.2,29.93,SSW,197,3.0,8.0,38,0.00,,---,0.00,VWS V14.01,2013-09-11 00:54:00,
2013-09-10 19:59:00,90.0,61.0,29.93,South,177,4.0,8.0,38,0.00,,---,0.00,VWS V14.01,2013-09-11 00:59:00,
2013-09-10 20:04:00,89.8,60.8,29.93,SW,215,2.0,6.0,38,0.00,,---,0.00,VWS V14.01,2013-09-11 01:04:00,
2013-09-10 20:09:00,89.6,60.7,29.93,SSW,197,3.0,6.0,38,0.00,,---,0.00,VWS V14.01,2013-09-11 01:09:00,
2013-09-10 20:14:00,89.3,60.4,29.93,SSW,197,0.0,6.0,38,0.00,,---,0.00,VWS V14.01,2013-09-11 01:14:00,
2013-09-10 20:19:00,89.0,60.1,29.94,SSW,203,3.0,5.0,38,0.00,,---,0.00,VWS V14.01,2013-09-11 01:19:00,
2013-09-10 20:24:00,88.8,59.9,29.94,WSW,239,3.0,7.0,38,0.00,,---,0.00,VWS V14.01,2013-09-11 01:24:00,
2013-09-10 20:29:00,88.6,60.5,29.94,SSW,205,0.0,7.0,39,0.00,,---,0.00,VWS V14.01,2013-09-11 01:29:00,
2013-09-10 20:34:00,88.3,60.2,29.94,SSW,212,4.0,6.0,39,0.00,,---,0.00,VWS V14.01,2013-09-11 01:34:00,
2013-09-10 20:39:00,88.1,60.0,29.95,SSW,201,4.0,6.0,39,0.00,,---,0.00,VWS V14.01,2013-09-11 01:39:00,
2013-09-10 20:43:00,87.9,60.6,29.95,South,174,5.0,6.0,40,0.00,,---,0.00,VWS V14.01,2013-09-11 01:43:00,
2013-09-10 20:48:00,87.6,60.3,29.95,SE,125,3.0,5.0,40,0.00,,---,0.00,VWS V14.01,2013-09-11 01:48:00,
2013-09-10 20:54:00,87.4,60.1,29.95,SSE,158,2.0,8.0,40,0.00,,---,0.00,VWS V14.01,2013-09-11 01:54:00,
2013-09-10 20:59:00,87.0,60.5,29.96,SSE,148,2.0,8.0,41,0.00,,---,0.00,VWS V14.01,2013-09-11 01:59:00,
2013-09-10 21:04:00,86.6,60.8,29.96,ESE,115,5.0,7.0,42,0.00,,---,0.00,VWS V14.01,2013-09-11 02:04:00,
2013-09-10 21:09:00,86.4,60.6,29.96,South,190,5.0,9.0,42,0.00,,---,0.00,VWS V14.01,2013-09-11 02:09:00,
2013-09-10 21:13:00,86.1,61.0,29.97,South,179,5.0,10.0,43,0.00,,---,0.00,VWS V14.01,2013-09-11 02:13:00,
2013-09-10 21:18:00,85.9,60.8,29.97,SSE,164,1.0,5.0,43,0.00,,---,0.00,VWS V14.01,2013-09-11 02:18:00,
2013-09-10 21:23:00,85.7,61.3,29.97,SE,128,4.0,7.0,44,0.00,,---,0.00,VWS V14.01,2013-09-11 02:23:00,
2013-09-10 21:28:00,85.6,61.2,29.97,South,172,4.0,7.0,44,0.00,,---,0.00,VWS V14.01,2013-09-11 02:28:00,
2013-09-10 21:33:00,85.4,61.0,29.97,South,172,5.0,9.0,44,0.00,,---,0.00,VWS V14.01,2013-09-11 02:33:00,
2013-09-10 21:38:00,85.1,60.8,29.98,SE,143,2.0,9.0,44,0.00,,---,0.00,VWS V14.01,2013-09-11 02:38:00,
2013-09-10 21:44:00,84.9,60.6,29.98,SE,136,5.0,9.0,44,0.00,,---,0.00,VWS V14.01,2013-09-11 02:44:00,
2013-09-10 21:48:00,84.7,60.4,29.98,SW,231,2.0,9.0,44,0.00,,---,0.00,VWS V14.01,2013-09-11 02:48:00,
2013-09-10 21:53:00,84.5,60.2,29.98,SW,229,3.0,9.0,44,0.00,,---,0.00,VWS V14.01,2013-09-11 02:53:00,
2013-09-10 21:58:00,84.3,60.0,29.98,SSE,148,3.0,10.0,44,0.00,,---,0.00,VWS V14.01,2013-09-11 02:58:00,
2013-09-10 22:03:00,84.2,60.0,29.99,SW,226,3.0,11.0,44,0.00,,---,0.00,VWS V14.01,2013-09-11 03:03:00,
2013-09-10 22:08:00,84.1,59.9,29.99,SE,128,8.0,11.0,44,0.00,,---,0.00,VWS V14.01,2013-09-11 03:08:00,
2013-09-10 22:13:00,83.9,59.7,29.99,SE,140,5.0,11.0,44,0.00,,---,0.00,VWS V14.01,2013-09-11 03:13:00,
2013-09-10 22:18:00,83.6,59.4,29.99,SSE,158,5.0,7.0,44,0.00,,---,0.00,VWS V14.01,2013-09-11 03:18:00,
2013-09-10 22:24:00,83.5,59.3,29.99,WSW,255,4.0,10.0,44,0.00,,---,0.00,VWS V14.01,2013-09-11 03:24:00,
2013-09-10 22:29:00,83.3,59.1,30.00,South,171,4.0,10.0,44,0.00,,---,0.00,VWS V14.01,2013-09-11 03:29:00,
2013-09-10 22:34:00,83.1,59.6,30.00,SSE,158,2.0,7.0,45,0.00,,---,0.00,VWS V14.01,2013-09-11 03:34:00,
2013-09-10 22:39:00,82.9,59.4,30.00,SSE,159,4.0,7.0,45,0.00,,---,0.00,VWS V14.01,2013-09-11 03:39:00,
2013-09-10 22:43:00,82.7,59.2,30.00,South,174,2.0,7.0,45,0.00,,---,0.00,VWS V14.01,2013-09-11 03:43:00,
2013-09-10 22:48:00,82.5,59.0,30.01,ESE,115,4.0,9.0,45,0.00,,---,0.00,VWS V14.01,2013-09-11 03:48:00,
2013-09-10 22:53:00,82.3,59.5,30.01,SSE,149,2.0,9.0,46,0.00,,---,0.00,VWS V14.01,2013-09-11 03:53:00,
2013-09-10 22:58:00,82.1,59.3,30.01,ESE,104,3.0,9.0,46,0.00,,---,0.00,VWS V14.01,2013-09-11 03:58:00,
2013-09-10 23:01:00,82.0,59.2,30.01,SE,138,4.0,5.0,46,0.00,,---,0.00,VWS V14.01,2013-09-11 04:01:00,
2013-09-10 23:02:00,81.9,59.1,30.01,SSE,166,2.0,5.0,46,0.00,,---,0.00,VWS V14.01,2013-09-11 04:02:00,
2013-09-10 23:07:00,81.7,59.5,30.01,SSW,193,3.0,5.0,47,0.00,,---,0.00,VWS V14.01,2013-09-11 04:07:00,
2013-09-10 23:12:00,81.5,59.3,30.01,SW,229,1.0,5.0,47,0.00,,---,0.00,VWS V14.01,2013-09-11 04:12:00,
2013-09-10 23:17:00,81.3,59.8,30.01,South,186,3.0,5.0,48,0.00,,---,0.00,VWS V14.01,2013-09-11 04:17:00,
2013-09-10 23:22:00,81.2,59.7,30.02,SSE,166,2.0,7.0,48,0.00,,---,0.00,VWS V14.01,2013-09-11 04:22:00,
2013-09-10 23:27:00,81.1,59.6,30.01,South,177,3.0,7.0,48,0.00,,---,0.00,VWS V14.01,2013-09-11 04:27:00,
2013-09-10 23:32:00,81.0,59.5,30.02,SE,139,4.0,9.0,48,0.00,,---,0.00,VWS V14.01,2013-09-11 04:32:00,
2013-09-10 23:37:00,80.9,60.0,30.01,SW,219,2.0,9.0,49,0.00,,---,0.00,VWS V14.01,2013-09-11 04:37:00,
2013-09-10 23:42:00,80.8,59.9,30.02,SSW,210,2.0,9.0,49,0.00,,---,0.00,VWS V14.01,2013-09-11 04:42:00,
2013-09-10 23:47:00,80.8,59.9,30.01,South,176,3.0,3.0,49,0.00,,---,0.00,VWS V14.01,2013-09-11 04:47:00,
2013-09-10 23:52:00,80.7,59.8,30.02,South,190,2.0,6.0,49,0.00,,---,0.00,VWS V14.01,2013-09-11 04:52:00,
2013-09-10 23:57:00,80.7,59.8,30.02,SW,229,2.0,10.0,49,0.00,,---,0.00,VWS V14.01,2013-09-11 04:57:00,